Date_and_time,latitude,longitude,wind_speed,RelWindDirFrom,WindDirFrom,air_pressure,air_temperature,relative_humidity,Temp,platform_speed_wrt_ground,air_pressure_at_mean_sea_level,platform_orientation
2019-09-11 23:50,50.6304516666667,-96.9807733333333,9.7,11.7,105,998.89,14.7,67,15.81,0.0,1025.58,167.4
2019-09-12 00:00,50.63045,-96.9807733333333,8.4,10.4,98,998.86,14.8,66,15.81,0.0,1025.54,90.0
2019-09-12 00:10,50.630455,-96.98078,9.2,12.2,93,998.69,15.0,66,15.80,0.0,1025.38,90.0
2019-09-12 00:20,50.630455,-96.9807766666667,10.1,12.9,93,998.63,15.1,66,15.79,0.0,1025.32,90.0
2019-09-12 00:30,50.6304566666667,-96.9807766666667,10.6,13.5,93,998.55,15.0,66,15.79,0.0,1025.24,90.0
2019-09-12 00:40,50.6304583333333,-96.9807766666667,11.8,13.9,96,998.54,14.7,67,15.81,0.0,1025.24,90.0
2019-09-12 00:50,50.6304583333333,-96.9807766666667,11.0,13.3,97,998.62,14.5,70,15.79,0.0,1025.33,90.0
2019-09-12 01:00,50.6304566666667,-96.9807766666667,11.7,14.2,99,998.63,14.3,72,15.76,0.0,1025.35,90.0
2019-09-12 01:10,50.6304716666667,-96.98077,12.0,14.7,99,998.69,14.2,72,15.75,0.0,1025.40,90.0
2019-09-12 01:20,50.6304433333333,-96.9807683333333,11.6,14.4,103,998.81,14.2,71,15.74,0.0,1025.53,90.0
2019-09-12 01:30,50.6304566666667,-96.9807616666667,11.3,13.9,103,998.92,14.1,71,15.72,0.0,1025.65,90.0
2019-09-12 01:40,50.6304566666667,-96.9807683333333,10.7,14.0,97,998.99,14.1,70,15.71,0.0,1025.74,90.0
2019-09-12 01:50,50.63046,-96.9807733333333,11.6,14.7,98,999.13,14.1,70,15.70,0.0,1025.87,90.0
2019-09-12 02:00,50.6304616666667,-96.9807733333333,11.5,13.6,98,999.22,14.2,69,15.70,0.0,1025.95,12.6
2019-09-12 02:10,50.6304616666667,-96.9807766666667,10.6,13.9,98,999.22,14.1,69,15.69,0.0,1025.96,12.6
2019-09-12 02:20,50.63046,-96.98078,10.5,12.7,95,999.22,14.1,68,15.70,0.0,1025.96,12.6
2019-09-12 02:30,50.6304616666667,-96.98078,11.0,14.4,95,999.11,14.2,69,15.68,0.0,1025.86,12.6
2019-09-12 02:40,50.6304616666667,-96.98078,11.6,14.9,94,999.05,14.2,68,15.67,0.0,1025.81,12.6
2019-09-12 02:50,50.63046,-96.98078,11.3,14.1,92,999.07,14.2,68,15.67,0.0,1025.83,12.6
2019-09-12 03:00,50.63046,-96.98078,11.6,13.9,93,999.07,14.3,69,15.68,0.0,1025.83,299.2
2019-09-12 03:10,50.63046,-96.98078,10.9,13.5,90,998.98,14.3,69,15.68,0.0,1025.75,299.2
2019-09-12 03:20,50.63046,-96.98078,11.2,14.9,91,998.92,14.3,69,15.66,0.0,1025.68,299.2
2019-09-12 03:30,50.63046,-96.98078,11.9,15.1,88,998.86,14.3,69,15.64,0.0,1025.63,299.2
2019-09-12 03:40,50.63046,-96.98078,13.9,17.0,92,998.78,14.2,69,15.62,0.0,1025.55,299.2
2019-09-12 03:50,50.63046,-96.9807816666667,13.6,17.2,86,998.76,14.2,70,15.59,0.0,1025.52,299.2
2019-09-12 04:00,50.63046,-96.9807816666667,14.0,17.6,88,998.82,14.1,69,15.57,0.0,1025.59,305.3
2019-09-12 04:10,50.63046,-96.9807816666667,13.6,17.4,90,998.83,14.0,70,15.57,0.0,1025.61,305.3
2019-09-12 04:20,50.63046,-96.9807816666667,14.1,17.9,90,998.86,13.9,71,15.56,0.0,1025.64,305.3
2019-09-12 04:30,50.63046,-96.9807816666667,15.9,19.6,92,998.99,13.8,71,15.56,0.0,1025.78,305.3
2019-09-12 04:40,50.6304616666667,-96.9807816666667,15.5,19.4,93,998.94,13.7,73,15.55,0.0,1025.73,305.3
2019-09-12 04:50,50.6304616666667,-96.9807816666667,14.7,17.5,94,998.73,13.6,74,15.55,0.0,1025.52,305.3
2019-09-12 05:00,50.6304583333333,-96.9807733333333,14.3,18.4,90,998.44,13.5,73,15.55,0.0,1025.22,360.0
2019-09-12 05:10,50.630465,-96.980785,13.7,16.4,90,998.17,13.3,74,15.56,0.0,1024.96,360.0
2019-09-12 05:20,50.630465,-96.98079,14.1,18.5,91,998.01,13.2,74,15.56,0.0,1024.79,360.0
2019-09-12 05:30,50.6304533333333,-96.980765,14.6,18.1,93,997.95,13.1,73,15.56,0.0,1024.74,360.0
2019-09-12 05:40,50.6304566666667,-96.9807733333333,14.2,18.2,89,997.89,13.1,72,15.55,0.0,1024.68,360.0
2019-09-12 05:50,50.630455,-96.9807633333333,15.2,19.9,92,998.08,13.1,72,15.54,0.0,1024.88,360.0
2019-09-12 06:00,50.6304766666667,-96.9807883333333,14.8,18.9,93,998.32,13.0,74,15.52,0.0,1025.14,360.0
2019-09-12 06:10,50.6304616666667,-96.9807766666667,13.9,17.1,93,998.20,12.9,75,15.50,0.0,1025.02,360.0
2019-09-12 06:20,50.6304616666667,-96.9807883333333,15.0,18.2,95,998.13,12.9,75,15.49,0.0,1024.96,360.0
2019-09-12 06:30,50.63046,-96.98079,14.4,17.4,97,998.11,12.7,76,15.49,0.0,1024.95,360.0
2019-09-12 06:40,50.6304616666667,-96.9807866666667,13.9,17.5,98,998.25,12.7,77,15.50,0.0,1025.10,360.0
2019-09-12 06:50,50.6304616666667,-96.980785,12.8,15.4,99,998.35,12.6,78,15.50,0.0,1025.21,360.0
2019-09-12 07:00,50.6304616666667,-96.9807833333333,12.4,15.7,100,998.38,12.6,78,15.50,0.0,1025.26,360.0
2019-09-12 07:10,50.6304633333333,-96.9807833333333,11.8,13.8,102,998.66,12.5,79,15.50,0.0,1025.55,360.0
2019-09-12 07:20,50.6304666666667,-96.9807766666667,12.0,14.8,106,998.75,12.5,78,15.50,0.0,1025.64,360.0
2019-09-12 07:30,50.6304633333333,-96.9807816666667,11.4,13.4,103,998.78,12.5,78,15.50,0.0,1025.68,360.0
2019-09-12 07:40,50.6304666666667,-96.980785,11.8,15.2,101,998.74,12.6,78,15.50,0.0,1025.63,360.0
2019-09-12 07:50,50.6304616666667,-96.9807816666667,11.3,14.2,99,998.70,12.5,78,15.49,0.0,1025.60,360.0
2019-09-12 08:00,50.6304633333333,-96.980785,9.8,13.4,92,998.61,12.5,79,15.48,0.0,1025.51,305.3
2019-09-12 08:10,50.6304616666667,-96.9807833333333,10.8,13.7,79,998.39,12.3,80,15.47,0.0,1025.29,305.3
2019-09-12 08:20,50.6304616666667,-96.9807816666667,10.0,13.3,81,998.27,12.2,81,15.46,0.0,1025.18,305.3
2019-09-12 08:30,50.6304616666667,-96.9807816666667,11.1,13.5,80,998.24,12.2,81,15.44,0.0,1025.16,305.3
2019-09-12 08:40,50.6304616666667,-96.9807816666667,10.9,15.7,83,998.28,12.2,81,15.42,0.0,1025.20,305.3
2019-09-12 08:50,50.63046,-96.98078,11.8,15.3,81,998.28,12.2,82,15.41,0.0,1025.21,305.3
2019-09-12 09:00,50.63046,-96.9807783333333,10.8,13.9,87,998.34,12.1,82,15.41,0.0,1025.27,360.0
2019-09-12 09:10,50.63046,-96.9807783333333,10.7,14.5,84,998.32,12.1,82,15.39,0.0,1025.25,360.0
2019-09-12 09:20,50.63046,-96.9807783333333,11.1,13.6,84,998.29,12.0,83,15.37,0.0,1025.23,360.0
2019-09-12 09:30,50.6304566666667,-96.9807816666667,11.4,16.1,89,998.34,12.0,82,15.35,0.0,1025.28,360.0
2019-09-12 09:40,50.6304533333333,-96.98078,13.3,18.7,94,998.34,12.1,77,15.34,0.0,1025.27,360.0
2019-09-12 09:50,50.6304533333333,-96.9807766666667,12.7,17.6,92,998.29,12.1,77,15.33,0.0,1025.22,360.0
2019-09-12 10:00,50.630455,-96.9807733333333,13.0,16.8,85,998.17,12.0,77,15.32,0.0,1025.11,167.4
2019-09-12 10:10,50.6304566666667,-96.9807716666667,13.7,18.4,82,998.10,11.9,78,15.32,0.0,1025.04,167.4
2019-09-12 10:20,50.6304583333333,-96.980785,13.9,20.5,81,997.97,11.9,79,15.30,0.0,1024.91,167.4
2019-09-12 10:30,50.6304566666667,-96.9807833333333,15.1,22.5,81,997.89,11.9,79,15.28,0.0,1024.84,167.4
2019-09-12 10:40,50.6304583333333,-96.9807816666667,16.9,20.9,75,997.78,11.8,79,15.27,0.0,1024.73,167.4
2019-09-12 10:50,50.6304566666667,-96.9807833333333,15.4,20.3,81,997.76,11.7,79,15.26,0.0,1024.71,167.4
2019-09-12 11:00,50.6304366666667,-96.9807733333333,15.8,20.3,80,997.80,11.6,80,15.26,0.0,1024.76,360.0
2019-09-12 11:10,50.63045,-96.9807783333333,15.5,20.3,83,997.80,11.5,82,15.26,0.0,1024.77,360.0
2019-09-12 11:20,50.6304566666667,-96.9807783333333,16.2,19.6,82,997.65,11.4,82,15.25,0.0,1024.62,360.0
2019-09-12 11:30,50.6304566666667,-96.9807766666667,15.9,19.9,81,997.63,11.2,84,15.23,0.0,1024.61,360.0
2019-09-12 11:40,50.6304566666667,-96.9807766666667,16.1,20.0,79,997.54,11.2,85,15.22,0.0,1024.52,360.0
2019-09-12 11:50,50.6304566666667,-96.9807783333333,16.8,21.0,78,997.40,11.2,86,15.22,0.0,1024.38,360.0
2019-09-12 12:00,50.6304566666667,-96.9807766666667,16.5,20.6,79,997.36,11.1,87,15.22,0.0,1024.34,125.3
2019-09-12 12:10,50.6304816666667,-96.9807816666667,16.5,20.6,79,997.27,11.0,86,15.22,0.0,1024.26,125.3
2019-09-12 12:20,50.6304583333333,-96.9807883333333,17.4,21.4,78,997.23,10.9,87,15.19,0.0,1024.22,125.3
2019-09-12 12:30,50.6304566666667,-96.9807816666667,17.0,21.3,79,997.22,10.9,88,15.19,0.0,1024.21,125.3
2019-09-12 12:40,50.6304383333333,-96.9807733333333,17.0,21.4,79,997.15,10.9,88,15.18,0.0,1024.14,125.3
2019-09-12 12:50,50.63045,-96.9807766666667,16.8,20.7,80,997.04,10.9,88,15.17,0.0,1024.04,125.3
2019-09-12 13:00,50.630445,-96.98077,17.5,20.9,80,996.91,10.9,89,15.17,0.0,1023.91,165.5
2019-09-12 13:10,50.6304516666667,-96.9807983333333,17.5,21.6,81,996.95,10.9,88,15.16,0.0,1023.95,165.5
2019-09-12 13:20,50.6304516666667,-96.980795,16.6,20.1,82,996.92,10.9,88,15.15,0.0,1023.93,165.5
2019-09-12 13:30,50.6304533333333,-96.9807883333333,16.8,21.9,81,997.04,10.9,88,15.13,0.0,1024.06,165.5
2019-09-12 13:40,50.6304566666667,-96.9807883333333,14.7,20.8,88,997.26,10.9,85,15.12,0.0,1024.28,165.5
2019-09-12 13:50,50.630455,-96.9807883333333,15.0,19.3,86,997.29,11.0,84,15.11,0.0,1024.31,165.5
2019-09-12 14:00,50.630455,-96.98079,14.5,19.0,84,997.34,11.1,83,15.11,0.0,1024.36,318.8
2019-09-12 14:10,50.6304566666667,-96.9807916666667,13.7,17.3,87,997.33,11.1,82,15.11,0.0,1024.35,318.8
2019-09-12 14:20,50.630475,-96.9807866666667,14.4,17.9,86,997.25,11.1,82,15.11,0.0,1024.27,318.8
2019-09-12 14:30,50.63046,-96.9807833333333,13.3,17.8,91,997.28,11.1,82,15.11,0.0,1024.31,318.8
2019-09-12 14:40,50.630455,-96.9807883333333,12.5,15.5,88,997.16,11.2,81,15.11,0.0,1024.18,318.8
2019-09-12 14:50,50.6304566666667,-96.9807916666667,13.1,18.7,86,997.13,11.1,80,15.10,0.0,1024.16,318.8
2019-09-12 15:00,50.630455,-96.98079,12.8,16.6,86,996.97,11.1,80,15.10,0.0,1023.99,270.0
2019-09-12 15:10,50.6304566666667,-96.9807866666667,13.3,17.6,85,996.84,11.2,79,15.11,0.0,1023.85,270.0
2019-09-12 15:20,50.6304633333333,-96.9807933333333,13.5,17.9,81,996.79,11.2,79,15.11,0.0,1023.81,270.0
2019-09-12 15:30,50.6304583333333,-96.9807933333333,12.8,17.7,83,996.69,11.3,78,15.11,0.0,1023.70,270.0
2019-09-12 15:40,50.6304616666667,-96.9807916666667,14.0,18.7,76,996.57,11.2,78,15.10,0.0,1023.56,270.0
2019-09-12 15:50,50.63046,-96.9807933333333,12.5,15.8,73,996.41,11.1,78,15.08,0.0,1023.40,270.0
2019-09-12 16:00,50.63046,-96.9807933333333,12.5,16.6,77,996.23,11.1,77,15.07,0.0,1023.22,309.1
2019-09-12 16:10,50.6304466666667,-96.98079,11.8,17.0,69,996.13,11.0,77,15.07,0.0,1023.12,309.1
2019-09-12 16:20,50.6304483333333,-96.980795,11.7,18.0,71,995.91,11.1,76,15.08,0.0,1022.90,309.1
2019-09-12 16:30,50.63045,-96.9807916666667,13.6,16.9,64,995.68,11.1,78,15.09,0.0,1022.66,309.1
2019-09-12 16:40,50.63045,-96.9808183333333,13.2,16.0,68,995.67,11.1,77,15.11,0.0,1022.64,309.1
2019-09-12 16:50,50.6304566666667,-96.9807866666667,14.3,17.7,72,995.67,11.3,76,15.12,0.0,1022.63,309.1
2019-09-12 17:00,50.6304616666667,-96.9808033333333,12.9,16.3,68,995.61,11.4,77,15.12,0.0,1022.56,347.4
2019-09-12 17:10,50.63045,-96.980785,12.1,16.1,73,995.42,11.5,77,15.09,0.0,1022.36,347.4
2019-09-12 17:20,50.6304566666667,-96.9807916666667,12.9,16.3,60,995.16,11.6,79,15.08,0.0,1022.09,347.4
2019-09-12 17:30,50.630445,-96.98081,14.0,17.3,62,994.98,11.7,78,15.09,0.0,1021.90,347.4
2019-09-12 17:40,50.6304566666667,-96.9807916666667,14.0,17.6,61,994.83,11.9,76,15.10,0.0,1021.74,347.4
2019-09-12 17:50,50.630455,-96.980795,15.1,18.9,56,994.56,12.2,76,15.10,0.0,1021.46,347.4
2019-09-12 18:00,50.6304416666667,-96.9807816666667,14.9,18.6,43,994.37,12.0,77,15.10,0.0,1021.27,165.5
2019-09-12 18:10,50.6304466666667,-96.98079,15.1,18.0,47,994.23,12.2,76,15.09,0.0,1021.11,165.5
2019-09-12 18:20,50.6304516666667,-96.9807816666667,15.1,18.4,37,993.88,12.3,77,15.07,0.0,1020.75,165.5
2019-09-12 18:30,50.6304533333333,-96.98078,15.3,18.7,34,993.59,12.4,76,15.07,0.0,1020.45,165.5
2019-09-12 18:40,50.6304566666667,-96.9807833333333,14.3,17.8,48,993.52,12.7,74,15.07,0.0,1020.35,165.5
2019-09-12 18:50,50.63046,-96.980785,15.5,18.2,44,993.27,12.9,72,15.08,0.0,1020.07,165.5
2019-09-12 19:00,50.63046,-96.9807866666667,14.9,18.4,48,993.07,13.3,70,15.10,0.0,1019.85,90.0
2019-09-12 19:10,50.63046,-96.9807866666667,14.2,17.2,49,992.92,13.6,69,15.11,0.0,1019.68,90.0
2019-09-12 19:20,50.63046,-96.9807833333333,15.0,19.2,52,992.57,13.7,66,15.13,0.0,1019.31,90.0
2019-09-12 19:30,50.63048,-96.9807933333333,15.0,18.9,46,992.30,13.6,67,15.16,0.0,1019.03,90.0
2019-09-12 19:40,50.630465,-96.9807866666667,14.5,17.9,48,992.15,13.7,67,15.18,0.0,1018.86,90.0
2019-09-12 19:50,50.6304633333333,-96.9807866666667,15.1,17.9,58,992.12,13.9,64,15.21,0.0,1018.82,90.0
2019-09-12 20:00,50.6304566666667,-96.9807716666667,14.5,17.6,56,991.93,14.0,65,15.23,0.0,1018.61,118.3
2019-09-12 20:10,50.630455,-96.9807733333333,15.0,17.9,42,991.76,14.0,65,15.22,0.0,1018.44,118.3
2019-09-12 20:20,50.6304533333333,-96.98077,13.8,17.2,46,991.69,14.1,64,15.15,0.0,1018.36,118.3
2019-09-12 20:30,50.630455,-96.9807733333333,15.2,19.6,51,991.50,14.2,63,15.10,0.0,1018.14,118.3
2019-09-12 20:40,50.6304533333333,-96.98078,16.4,18.7,62,991.41,14.5,61,15.07,0.0,1018.02,118.3
2019-09-12 20:50,50.6304683333333,-96.9807683333333,17.0,20.1,65,991.55,14.7,60,15.03,0.0,1018.14,118.3
2019-09-12 21:00,50.6304883333333,-96.9807916666667,16.1,19.2,70,991.66,14.8,62,15.02,0.0,1018.23,360.0
2019-09-12 21:10,50.6304683333333,-96.980785,17.6,21.6,74,991.59,14.8,60,15.01,0.0,1018.15,360.0
2019-09-12 21:20,50.63046,-96.9807766666667,16.6,18.9,76,991.59,14.8,60,15.04,0.0,1018.16,360.0
2019-09-12 21:30,50.6304583333333,-96.980775,15.8,18.9,76,991.62,14.7,59,15.09,0.0,1018.19,360.0
2019-09-12 21:40,50.63046,-96.980775,15.9,20.1,78,991.56,14.6,60,15.12,0.0,1018.12,360.0
2019-09-12 21:50,50.63046,-96.9807766666667,14.1,19.2,81,991.56,14.6,63,15.14,0.0,1018.12,360.0
2019-09-12 22:00,50.63046,-96.9807783333333,13.4,17.2,87,991.61,14.3,65,15.15,0.0,1018.19,90.0
2019-09-12 22:10,50.6304716666667,-96.9807883333333,11.6,16.4,87,991.58,14.0,68,15.11,0.0,1018.16,90.0
2019-09-12 22:20,50.6304566666667,-96.9807766666667,13.9,17.9,77,991.34,13.7,68,15.04,0.0,1017.92,90.0
2019-09-12 22:30,50.630425,-96.9807766666667,15.6,19.4,79,991.22,13.3,68,14.95,0.0,1017.80,90.0
2019-09-12 22:40,50.6304483333333,-96.98078,15.4,19.0,79,991.21,13.0,72,14.91,0.0,1017.81,90.0
2019-09-12 22:50,50.6304533333333,-96.9807866666667,16.3,21.6,70,991.20,12.6,76,14.88,0.0,1017.81,90.0
2019-09-12 23:00,50.630455,-96.980785,19.0,22.1,67,991.13,12.1,76,14.86,0.0,1017.76,270.0
2019-09-12 23:10,50.6304566666667,-96.980785,18.3,21.2,64,990.99,11.8,75,14.85,0.0,1017.63,270.0
2019-09-12 23:20,50.630455,-96.9807866666667,17.0,19.7,61,990.84,11.8,77,14.83,0.0,1017.48,270.0
2019-09-12 23:30,50.630455,-96.980785,16.6,19.3,57,990.68,11.9,75,14.84,0.0,1017.32,270.0
